Stations météo

réclame
Mon MeteoGroup
Gallivare, Suède (2049): Température de l'air & dewpoint: 12.06.2019 01:00:00 - 18.06.2019 01:00:00 (CEST)Gallivare, Suède (2049): Vitesse du vent & gusts: 12.06.2019 01:00:00 - 18.06.2019 01:00:00 (CEST)Gallivare, Suède (2049): Direction du vent: 12.06.2019 01:00:00 - 18.06.2019 01:00:00 (CEST)Gallivare, Suède (2049): reduced air pressure: 12.06.2019 01:00:00 - 18.06.2019 01:00:00 (CEST)Gallivare, Suède (2049): visibility: 12.06.2019 01:00:00 - 18.06.2019 01:00:00 (CEST)Gallivare, Suède (2049): Quantités de précipitations: 12.06.2019 01:00:00 - 18.06.2019 01:00:00 (CEST)
Date & Time tt [°C] td [°C] ff [km/h] ff [knt] fx [km/h] fx [knt] dd ppp [hPa] vv [km] rr [mm]
18.06.2019 01:00:00 - - - - - - - - - -
18.06.2019 00:00:00 14,2 5,3 5 3 18 10 NNW 1006,5 43 0,0
17.06.2019 23:00:00 16,6 5,2 6 3 22 12 NNE 1005,9 41 0,0
17.06.2019 22:00:00 18,5 5,0 10 5 19 11 N 1005,1 30 0,0
17.06.2019 21:00:00 19,7 3,8 4 2 12 7 ENE 1004,8 50 0,0
17.06.2019 20:00:00 19,4 3,5 8 4 16 8 ENE 1004,8 40 0,0
17.06.2019 19:00:00 20,6 3,3 6 3 14 7 N 1004,5 50 0,0
17.06.2019 18:00:00 21,0 3,7 9 5 16 9 N 1004,6 46 0,0
17.06.2019 17:00:00 22,3 5,7 6 3 14 8 SW 1004,7 40 0,0
17.06.2019 16:00:00 20,7 4,7 3 1 16 9 ENE 1005,1 30 0,0
17.06.2019 15:00:00 21,3 3,9 8 4 22 12 WNW 1005,1 23 0,0
17.06.2019 14:00:00 21,7 3,8 8 4 24 13 N 1005,2 28 0,0
17.06.2019 13:00:00 21,7 5,6 10 5 20 11 NNW 1005,3 33 0,0
17.06.2019 12:00:00 20,2 4,6 8 4 16 9 N 1005,7 35 0,0
17.06.2019 11:00:00 19,9 4,8 4 2 13 7 WSW 1006,0 33 0,0
17.06.2019 10:00:00 18,4 4,2 5 3 12 6 NNE 1006,5 21 0,0
17.06.2019 09:00:00 17,2 3,5 0 0 12 6 N 1006,8 44 0,0
17.06.2019 08:00:00 15,8 3,2 7 4 13 7 E 1007,2 43 0,0
17.06.2019 07:00:00 14,9 2,4 4 2 13 7 NNE 1007,9 50 0,0
17.06.2019 06:00:00 14,3 2,2 7 4 12 7 E 1008,1 50 0,0
17.06.2019 05:00:00 13,1 2,3 7 4 14 8 E 1008,3 50 0,0
17.06.2019 04:00:00 11,8 2,5 3 2 7 4 E 1008,6 50 0,0
17.06.2019 03:00:00 11,4 2,4 3 2 12 6 ESE 1008,9 50 0,0
17.06.2019 02:00:00 13,2 1,8 8 5 20 11 E 1008,7 50 0,0
17.06.2019 01:00:00 14,8 1,3 10 5 23 12 E 1008,5 38 0,0
17.06.2019 00:00:00 16,7 1,9 12 6 25 13 E 1008,2 22 0,0
16.06.2019 23:00:00 18,4 3,4 8 4 14 8 E 1007,7 46 0,0
16.06.2019 22:00:00 19,5 2,8 7 4 18 10 ESE 1007,7 50 0,0
16.06.2019 21:00:00 20,3 2,6 7 4 16 9 ESE 1007,7 23 0,0
16.06.2019 20:00:00 21,6 2,3 11 6 21 11 E 1007,4 26 0,0
16.06.2019 19:00:00 23,1 2,0 5 3 14 7 S 1007,3 40 0,0
16.06.2019 18:00:00 24,3 2,4 8 4 19 10 S 1007,5 44 0,0
16.06.2019 17:00:00 24,4 5,2 6 3 12 7 SSW 1007,9 39 0,0
16.06.2019 16:00:00 24,4 3,1 5 3 15 8 SSW 1008,3 35 0,0
16.06.2019 15:00:00 24,1 1,7 8 4 14 8 W 1008,8 40 0,0
16.06.2019 14:00:00 23,7 1,3 8 4 14 8 SSW 1009,2 41 0,0
16.06.2019 13:00:00 22,9 1,3 6 3 11 6 SSW 1009,7 35 0,0
16.06.2019 12:00:00 21,2 -0,8 3 1 14 8 ESE 1010,3 35 0,0
16.06.2019 11:00:00 20,8 1,1 4 2 15 8 WNW 1010,7 34 0,0
16.06.2019 10:00:00 19,5 1,5 4 2 13 7 SW 1011,4 41 0,0
16.06.2019 09:00:00 19,1 0,2 4 2 14 8 NE 1011,8 41 0,0
16.06.2019 08:00:00 17,4 1,0 5 3 14 8 NNE 1012,4 43 0,0
16.06.2019 07:00:00 15,3 3,7 3 2 9 5 W 1013,0 50 0,0
16.06.2019 06:00:00 13,6 5,7 6 3 9 5 W 1013,2 50 0,0
16.06.2019 05:00:00 11,6 5,5 4 2 7 4 W 1013,6 47 0,0
16.06.2019 04:00:00 8,1 5,0 6 3 8 5 W 1014,6 50 0,0
16.06.2019 03:00:00 7,0 4,3 5 3 10 5 NW 1014,8 50 0,0
16.06.2019 02:00:00 7,7 3,7 6 3 9 5 WNW 1014,8 48 0,0
16.06.2019 01:00:00 11,0 3,1 5 3 14 7 W 1014,1 50 0,0
16.06.2019 00:00:00 12,4 2,3 5 3 10 5 W 1013,8 50 0,0
15.06.2019 23:00:00 14,0 2,6 6 4 13 7 WNW 1013,6 43 0,0
15.06.2019 22:00:00 18,1 3,6 5 3 19 11 NW 1012,6 50 0,0
15.06.2019 21:00:00 20,8 2,6 13 7 23 13 WNW 1011,8 44 0,0
15.06.2019 20:00:00 22,8 2,8 11 6 23 12 WNW 1011,5 49 0,0
15.06.2019 19:00:00 23,2 1,5 12 7 23 12 NW 1011,8 50 0,0
15.06.2019 18:00:00 23,9 2,1 14 8 24 13 WNW 1012,1 50 0,0
15.06.2019 17:00:00 23,7 1,3 12 7 27 14 W 1012,6 48 0,0
15.06.2019 16:00:00 23,6 0,0 13 7 26 14 WNW 1012,9 34 0,0
15.06.2019 15:00:00 23,2 0,9 5 3 23 13 WSW 1013,3 33 0,0
15.06.2019 14:00:00 21,8 0,9 5 3 16 9 ESE 1014,0 39 0,0
15.06.2019 13:00:00 21,4 2,1 7 4 14 8 WSW 1014,5 20 0,0
15.06.2019 12:00:00 20,5 2,8 7 4 15 8 SSW 1014,9 37 0,0
15.06.2019 11:00:00 18,7 2,1 4 2 14 7 S 1015,5 41 0,0
15.06.2019 10:00:00 16,9 2,1 0 0 14 8 N 1016,0 42 0,0
15.06.2019 09:00:00 15,6 0,6 4 2 12 6 NE 1016,6 44 0,0
15.06.2019 08:00:00 14,4 0,6 6 3 12 6 NNW 1016,8 43 0,0
15.06.2019 07:00:00 13,2 -0,1 4 2 13 7 NE 1017,3 50 0,0
15.06.2019 06:00:00 11,6 -0,2 8 4 14 8 NE 1017,6 50 0,0
15.06.2019 05:00:00 10,8 -0,7 8 4 15 8 ENE 1017,8 50 0,0
15.06.2019 04:00:00 10,0 -1,1 3 1 13 7 E 1018,1 50 0,0
15.06.2019 03:00:00 9,2 -2,1 4 2 16 9 E 1018,0 50 0,0
15.06.2019 02:00:00 10,5 -2,5 8 4 16 9 E 1017,3 50 0,0
15.06.2019 01:00:00 11,3 -0,8 3 1 19 10 E 1016,8 50 0,0
15.06.2019 00:00:00 13,5 -0,5 5 3 22 12 ENE 1016,0 50 0,0
14.06.2019 23:00:00 16,3 1,6 12 6 23 13 E 1014,7 50 0,0
14.06.2019 22:00:00 18,9 1,4 13 7 24 13 NNE 1013,5 29 0,0
14.06.2019 21:00:00 20,4 -0,9 5 3 10 5 NE 1012,9 50 0,0
14.06.2019 20:00:00 21,7 4,3 6 3 13 7 WNW 1012,8 50 0,0
14.06.2019 19:00:00 21,5 -1,8 7 4 13 7 NNW 1013,3 50 0,0
14.06.2019 18:00:00 22,3 2,4 4 2 13 7 WSW 1013,6 50 0,0
14.06.2019 17:00:00 22,2 2,8 5 3 16 9 W 1014,0 48 0,0
14.06.2019 16:00:00 22,0 1,6 6 3 14 8 W 1014,7 48 0,0
14.06.2019 15:00:00 21,5 0,1 8 4 16 9 SW 1015,5 48 0,0
14.06.2019 14:00:00 20,3 1,7 8 4 19 10 WSW 1016,3 50 0,0
14.06.2019 13:00:00 19,7 1,2 7 4 16 9 WSW 1017,2 35 0,0
14.06.2019 12:00:00 18,3 -1,0 9 5 22 12 W 1018,1 50 0,0
14.06.2019 11:00:00 18,3 2,6 9 5 16 8 WNW 1018,1 50 0,0
14.06.2019 10:00:00 17,1 1,5 5 3 14 8 WNW 1018,8 45 0,0
14.06.2019 09:00:00 15,7 2,5 4 2 12 7 SW 1019,4 50 0,0
14.06.2019 08:00:00 14,9 2,8 4 2 9 5 W 1019,8 50 0,0
14.06.2019 07:00:00 13,1 5,3 2 1 5 3 SSW 1020,4 50 0,0
14.06.2019 06:00:00 10,3 5,1 0 0 6 3 N 1021,5 50 0,0
14.06.2019 05:00:00 7,7 5,0 0 0 7 4 N 1022,3 50 0,0
14.06.2019 04:00:00 5,0 4,0 4 2 9 5 W 1023,0 50 0,0
14.06.2019 03:00:00 3,9 3,5 3 1 6 3 W 1023,3 50 0,0
14.06.2019 02:00:00 3,2 2,6 2 1 4 2 WSW 1023,7 43 0,0
14.06.2019 01:00:00 3,8 3,1 0 0 3 1 N 1024,0 50 0,0
14.06.2019 00:00:00 5,7 3,7 0 0 3 2 N 1023,8 50 0,0
13.06.2019 23:00:00 8,4 4,4 0 0 7 4 N 1023,2 50 0,0
13.06.2019 22:00:00 12,2 2,6 6 3 14 7 E 1022,7 50 0,0
13.06.2019 21:00:00 13,1 2,6 4 2 14 8 ESE 1022,2 50 0,0
13.06.2019 20:00:00 13,7 2,6 8 4 15 8 E 1022,3 50 0,0
13.06.2019 19:00:00 13,3 2,8 7 4 14 7 E 1022,6 50 0,0
13.06.2019 18:00:00 13,7 2,6 6 3 14 7 ESE 1022,7 50 0,0
13.06.2019 17:00:00 13,6 2,2 5 3 13 7 SE 1023,0 38 0,0
13.06.2019 16:00:00 13,7 1,3 7 4 16 9 S 1023,1 50 0,0
13.06.2019 15:00:00 14,2 1,8 8 4 21 11 SSW 1023,5 39 0,0
13.06.2019 14:00:00 14,8 2,3 10 6 21 11 S 1023,7 46 0,0
13.06.2019 13:00:00 14,7 0,9 8 4 20 11 SE 1023,7 38 0,0
13.06.2019 12:00:00 15,1 0,9 9 5 20 11 S 1024,3 50 0,0
13.06.2019 11:00:00 12,4 0,5 7 4 21 11 S 1025,0 48 0,0
13.06.2019 10:00:00 11,5 -0,3 6 4 16 8 SSE 1025,4 50 0,0
13.06.2019 09:00:00 10,7 -0,8 6 3 18 10 SE 1025,5 50 0,0
13.06.2019 08:00:00 11,0 0,4 9 5 21 11 SSE 1025,6 48 0,0
13.06.2019 07:00:00 9,5 0,4 7 4 16 9 ESE 1025,9 50 0,0
13.06.2019 06:00:00 8,4 0,1 8 4 15 8 ESE 1026,2 50 0,0
13.06.2019 05:00:00 7,0 0,2 6 3 15 8 ESE 1026,7 50 0,0
13.06.2019 04:00:00 7,5 -0,5 7 4 16 9 ESE 1026,5 50 0,0
13.06.2019 03:00:00 7,3 -0,2 10 5 20 11 E 1026,5 50 0,0
13.06.2019 02:00:00 8,4 -1,4 14 8 23 12 E 1026,3 50 0,0
13.06.2019 01:00:00 8,3 -0,7 13 7 23 12 E 1026,5 50 0,0
13.06.2019 00:00:00 9,0 -0,1 11 6 27 15 E 1026,3 50 0,0
12.06.2019 23:00:00 10,3 0,3 12 6 33 18 S 1025,6 50 0,0
12.06.2019 22:00:00 11,5 0,9 15 8 27 15 S 1025,4 50 0,0
12.06.2019 21:00:00 12,5 0,6 10 5 20 11 S 1025,0 50 0,0
12.06.2019 20:00:00 13,3 0,3 12 6 22 12 S 1024,9 50 0,0
12.06.2019 19:00:00 15,5 -0,3 13 7 22 12 SSW 1024,7 50 0,0
12.06.2019 18:00:00 14,0 0,6 10 5 22 12 SSW 1025,3 50 0,0
12.06.2019 17:00:00 14,5 0,0 11 6 23 13 SW 1025,6 50 0,0
12.06.2019 16:00:00 13,5 0,2 11 6 21 11 SSW 1026,4 50 0,0
12.06.2019 15:00:00 13,6 0,2 12 6 21 12 SW 1027,0 50 0,0
12.06.2019 14:00:00 13,2 -0,1 10 6 22 12 SW 1027,2 50 0,0
12.06.2019 13:00:00 14,2 1,1 12 6 24 13 SSW 1027,2 50 0,0
12.06.2019 12:00:00 14,0 0,6 13 7 22 12 SSW 1027,7 50 0,0
12.06.2019 11:00:00 12,5 1,2 6 4 20 11 W 1028,4 41 0,0
12.06.2019 10:00:00 11,0 0,4 3 1 11 6 SSW 1028,9 50 0,0
12.06.2019 09:00:00 11,1 -0,1 3 2 14 7 NNE 1029,0 46 0,0
12.06.2019 08:00:00 10,1 0,1 6 3 12 7 E 1029,3 50 0,0
12.06.2019 07:00:00 9,4 0,3 4 2 9 5 SE 1029,7 50 0,0
12.06.2019 06:00:00 8,4 0,4 2 1 5 3 SE 1030,1 50 0,0
12.06.2019 05:00:00 5,2 2,5 0 0 4 2 N 1030,6 50 0,0
12.06.2019 04:00:00 1,6 0,9 0 0 4 2 N 1031,4 50 0,0
12.06.2019 03:00:00 1,3 1,0 0 0 5 3 N 1031,7 50 0,0
12.06.2019 02:00:00 0,4 -0,2 0 0 7 4 N 1031,8 50 0,0
12.06.2019 01:00:00 1,4 0,5 0 0 4 2 N 1031,5 50 0,0

tt = Température de l'air
td = dewpoint
ff = Vitesse du vent
fx = gusts
dd = Direction du vent
ppp = reduced air pressure
vv = visibility
rr = Quantités de précipitations

stations d'obs. à proximité